Regional Weather Roundup
Issued by NWS State College, PA

Home | Current Version | Previous Version | Text Only | Print | Product List | Glossary Off
Versions: 1 2 3 4 5 6 7 8 9 10 11 12 13 14 15 16 17 18 19 20 21 22 23 24 25 26 27 28 29 30 31 32 33 34 35 36 37 38 39 40 41 42 43 44 45 46 47 48 49 50

000
ASUS41 KCTP 291210
RWRCTP

REGIONAL WEATHER ROUNDUP
NATIONAL WEATHER SERVICE STATE COLLEGE PA
800 AM EDT THU SEP 29 2016

Note: "fair" indicates few or no clouds below 12,000 feet with no
significant weather and/or obstructions to visibility.

* = STATION THAT DOES NOT REPORT PRECIPITATION /E.G. RAIN...SNOW...ETC/
    THUNDER OR FOG.

PAZ002>004-007>009-013>016-020>023-029>032-291300-
WESTERN PENNSYLVANIA

CITY           SKY/WX    TMP DP  RH WIND       PRES   REMARKS
ERIE           CLOUDY    64  56  75 NE9       30.12R
MEADVILLE      CLOUDY    58  55  90 VRB3      30.12R
FRANKLIN*        N/A     57  52  82 E8G20     30.14R
NEW CASTLE     CLOUDY    60  59  96 E6        30.12R
BEAVER COUNTY  RAIN      59  59 100 E7G16     30.11R
BUTLER*        CLOUDY    57  54  88 E13G18    30.13S
PITTSBURGH INT CLOUDY    60  60 100 E10       30.08S
PITTSBURGH     CLOUDY    60  56  86 VRB7      30.09R
INDIANA*       CLOUDY    57  55  94 VRB7      30.15S
LATROBE        MOCLDY    59  57  94 NE9       30.10R
WASHINGTON CO* CLOUDY    57  54  88 CALM      30.08R
$$

PAZ004>006-010>012-017>019-024>028-033>037-041-042-045-046-049>053-291300-
CENTRAL PENNSYLVANIA

CITY           SKY/WX    TMP DP  RH WIND       PRES   REMARKS
BRADFORD       LGT RAIN  54  54 100 E10       30.20R
DUBOIS         RAIN      55  52  89 E9        30.16R FOG
CLEARFIELD     HVY RAIN  55  55 100 E13       30.17R FOG
JOHNSTOWN      RAIN      54  54 100 E7        30.13R FOG
ALTOONA        HVY RAIN  56  55  97 E7        30.15R FOG
STATE COLLEGE  HVY RAIN  54  54 100 NE9       30.19R FOG
WILLIAMSPORT   RAIN      58  56  93 E3        30.22R
SELINSGROVE    LGT RAIN  58  57  97 NE5       30.21R
FT INDIANTOWN  LGT RAIN  56  56  99 E14G24    30.21R
CAPITAL CITY   RAIN      60  57  89 SE15G23   30.19R FOG
HARRISBURG     LGT RAIN  60  59  96 E20G26    30.18R FOG
YORK           HVY RAIN  61  60  97 E9        30.16R
$$

PAZ038>040-043-044-047-048-054-055-060>062-067>071-291300-
EASTERN PENNSYLVANIA

CITY           SKY/WX    TMP DP  RH WIND       PRES   REMARKS
SCRANTON       LGT RAIN  55  52  89 E13G23    30.26S
MOUNT POCONO   LGT RAIN  49  48  97 E16G26    30.30R
ALLENTOWN      LGT RAIN  57  53  86 NE16G23   30.26S
QUAKERTOWN*    CLOUDY    55  55 100 NE7       30.27R
READING        LGT RAIN  59  55  87 VRB7      30.22R
LANCASTER      HVY RAIN  59  59 100 E20G31    30.18R FOG
COATESVILLE    LGT RAIN  59  59 100 E17G29    30.22R
POTTSTOWN      CLOUDY    58  56  93 E10G20    30.25R
BLUE BELL      CLOUDY    59  57  94 E16G23    30.23R
DOYLESTOWN     LGT RAIN  58  57  97 NE8       30.25R
WILLOW GROVE   NOT AVBL
NORTH PHILA    LGT RAIN  63  60  90 E20G28    30.26R
PHILADELPHIA   LGT RAIN  63  61  93 E17G30    30.21R
$$




USA.gov is the U.S. government's official web portal to all federal, state and local government web resources and services.